Salt Lake City, UT

2:49 PM MST on December 09, 2016 (GMT -0700)
Salt Lake City International

Weather History for KSLC - October, 2013

Change the Weather History Date:

Thursday, October 31, 2013

  Actual Average Record
Temperature  
Mean Temperature 50 °F 47 °F  
Max Temperature 55 °F 58 °F 77 °F (2014)
Min Temperature 44 °F 36 °F 18 °F (1935)
Degree Days  
Heating Degree Days 15 18  
Month to date heating degree days 383 380  
Since 1 July heating degree days 438 468  
Cooling Degree Days 0 0  
Month to date cooling degree days 0 7  
Year to date cooling degree days 1768 1160  
Moisture  
Dew Point 29 °F    
Average Humidity 49    
Maximum Humidity 65    
Minimum Humidity 32    
Precipitation  
Precipitation 0.00 in 0.05 in 0.83 in (1933)
Month to date precipitation 0.74 1.52  
Year to date precipitation 9.35 13.24  
Snow  
Snow 0.00 in 0.10 in 8.50 in (1971)
Month to date snowfall T 1.4  
Since 1 July snowfall T 1.4  
Snow Depth 0.00 in    
Sea Level Pressure  
Sea Level Pressure 30.12 in    
Wind  
Wind Speed 4 mph (NNW)    
Max Wind Speed 9 mph    
Max Gust Speed 13 mph    
Visibility 10 miles    
Events      
T = Trace of Precipitation, MM = Missing Value Source: NWS Daily Summary

Daily Weather History Graph

Daily Weather History Graph

Search for Another Location

Airport or City:

Trip Planner

Search our weather history database for the weather conditions in past years. The results will help you decide how hot, cold, wet, or windy it might be!

Date:

Astronomy

Oct. 31, 2013 Rise Set
Actual Time 7:57 AM MDT 6:24 PM MDT
Civil Twilight 7:29 AM MDT 6:53 PM MDT
Nautical Twilight 6:56 AM MDT 7:25 PM MDT
Astronomical Twilight 6:24 AM MDT 7:57 PM MDT
Moon 4:49 AM MDT (10/31) 4:45 PM MDT (10/31)
Length of Visible Light 11h 24m
Length of Day
10h 27m
Waning Crescent, 9% of the Moon is Illuminated
Oct 31
Waning Crescent
Nov 3
New
Nov 9
First Quarter
Nov 17
Full
Nov 25
Last Quarter

Hourly Weather History & Observations

Time (MDT) Temp. Windchill Dew Point Humidity Pressure Visibility Wind Dir Wind Speed Gust Speed Precip Events Conditions
12:53 AM 45.0 °F 43.5 °F 33.1 °F 63% 30.06 in 10.0 mi North 3.5 mph - N/A   Overcast
1:53 AM 44.1 °F 42.5 °F 34.0 °F 68% 30.07 in 10.0 mi NNW 3.5 mph - N/A   Overcast
2:53 AM 45.0 °F - 34.0 °F 65% 30.08 in 10.0 mi Calm Calm - N/A   Overcast
3:53 AM 44.1 °F 41.5 °F 34.0 °F 68% 30.08 in 10.0 mi West 4.6 mph - N/A   Overcast
4:53 AM 45.0 °F - 33.1 °F 63% 30.09 in 10.0 mi Calm Calm - N/A   Overcast
5:53 AM 45.0 °F - 32.0 °F 60% 30.10 in 10.0 mi Calm Calm - N/A   Overcast
6:53 AM 46.0 °F 42.5 °F 30.9 °F 56% 30.12 in 10.0 mi WNW 6.9 mph - N/A   Overcast
7:53 AM 46.0 °F 44.8 °F 30.0 °F 54% 30.12 in 10.0 mi WNW 3.5 mph - N/A   Mostly Cloudy
8:53 AM 46.0 °F 43.9 °F 28.9 °F 51% 30.14 in 10.0 mi NW 4.6 mph - N/A   Scattered Clouds
9:53 AM 46.9 °F - 30.0 °F 52% 30.17 in 10.0 mi NNW 3.5 mph - N/A   Mostly Cloudy
10:53 AM 48.9 °F - 28.0 °F 44% 30.18 in 10.0 mi Calm Calm - N/A   Mostly Cloudy
11:53 AM 51.1 °F - 28.0 °F 41% 30.19 in 10.0 mi North 6.9 mph - N/A   Mostly Cloudy
12:53 PM 52.0 °F - 26.1 °F 37% 30.17 in 10.0 mi Calm Calm - N/A   Scattered Clouds
1:53 PM 53.1 °F - 26.1 °F 35% 30.14 in 10.0 mi WNW 8.1 mph - N/A   Scattered Clouds
2:53 PM 54.0 °F - 25.0 °F 33% 30.12 in 10.0 mi West 6.9 mph - N/A   Scattered Clouds
3:53 PM 54.0 °F - 26.1 °F 34% 30.12 in 10.0 mi ENE 3.5 mph - N/A   Mostly Cloudy
4:53 PM 52.0 °F - 25.0 °F 35% 30.11 in 10.0 mi NNE 4.6 mph - N/A   Mostly Cloudy
5:53 PM 52.0 °F - 26.1 °F 37% 30.10 in 10.0 mi North 4.6 mph - N/A   Overcast
6:53 PM 51.1 °F - 26.1 °F 38% 30.10 in 10.0 mi Calm Calm - N/A   Overcast
7:53 PM 52.0 °F - 27.0 °F 38% 30.11 in 10.0 mi SE 5.8 mph - N/A   Mostly Cloudy
8:53 PM 51.1 °F - 28.0 °F 41% 30.11 in 10.0 mi ESE 6.9 mph - N/A   Overcast
9:53 PM 51.1 °F - 28.9 °F 43% 30.11 in 10.0 mi SSE 5.8 mph - N/A   Mostly Cloudy
10:53 PM 50.0 °F - 30.0 °F 46% 30.12 in 10.0 mi SE 6.9 mph - N/A   Mostly Cloudy
11:53 PM 51.1 °F - 30.0 °F 44% 30.12 in 10.0 mi Calm Calm - N/A   Mostly Cloudy